Location: Fort Frances
(48.6170°N, 93.4170°W)
Time: 21:43:31
(UTC-05:00)

Daily predictions for brighter satellites

Satellite Brightness Start Highest point End
(mag) Time Altitude Azimuth Time Altitude Azimuth Time Altitude Azimuth
deb Chang Zheng 4 4.0 21:57:00 10° N 22:01:20 70° WNW 22:05:38 10° SSW
MetOp-A 4.2 21:56:37 10° SSE 22:01:58 89° ENE 22:07:22 10° NNW
ARGOS 3.5 21:56:50 10° SE 22:02:06 56° ENE 22:07:23 10° N
BREEZE-M DEB (TANK) 1.6 22:01:00 10° W 22:03:11 75° N 22:05:24 10° E
Cosmos 1500 Rocket 3.7 21:59:13 10° SSW 22:03:35 80° W 22:08:02 10° N
ATLAS 3B R/B 4.3 21:58:45 10° NW 22:05:05 30° NNE 22:11:04 10° E
H-2A R/B 3.1 22:01:25 10° SE 22:06:12 34° ENE 22:11:04 10° N
Cosmos 2219 4.0 22:05:27 10° SSE 22:10:31 33° ESE 22:15:37 10° NE
ATLAS CENTAUR R/B 4.0 22:08:33 10° WNW 22:10:55 14° WSW 22:13:10 10° SW
Cosmos 1271 Rocket 4.3 22:08:27 10° NNE 22:11:30 22° ENE 22:14:35 10° ESE
NOSS 3-1 (C) 4.4 22:07:52 10° SSE 22:12:34 25° ESE 22:17:40 10° ENE
Cosmos 1441 Rocket 3.8 22:08:54 10° SSW 22:12:37 57° WNW 22:16:21 10° N
SL-08 RB Rocket 4.0 22:09:06 10° SSE 22:13:27 55° ENE 22:17:51 10° N
PSLV R/B 4.1 22:11:34 10° S 22:14:33 45° W 22:17:32 10° NNW
Cosmos 2322 3.9 22:08:59 10° NNW 22:14:44 77° WSW 22:20:25 10° SSE
Cosmos 2237 Rocket 3.6 22:12:23 10° NNW 22:17:16 28° NE 22:22:08 10° ESE
SPOT 1/Viking Rocket 3.6 22:12:56 10° SSE 22:18:05 87° ENE 22:23:17 10° NNW
Cosmos 1726 2.9 22:15:30 10° N 22:19:04 38° ENE 22:22:28 11° SE
Cosmos 1680 Rocket 3.6 22:13:58 10° NNW 22:19:13 79° WSW 22:24:28 10° SSE
Cosmos 2322 Rocket 3.9 22:15:45 10° NW 22:20:22 27° WSW 22:24:59 10° SSW
Cosmos 923 Rocket 4.5 22:17:21 10° NNW 22:22:29 58° WSW 22:27:33 10° S
Cosmos 1908 4.5 22:23:45 10° NNW 22:27:25 40° W 22:31:05 10° SSW
Cosmos 304 Rocket 4.2 22:23:03 10° NNW 22:27:50 62° WSW 22:32:33 10° S
AVUM R/B 2.4 22:26:44 10° SSW 22:29:05 78° ESE 22:31:41 10° NNE
USA 245 2.5 22:26:35 10° S 22:29:14 60° WSW 22:31:34 10° NNW
SL-16 R/B 4.0 22:25:09 10° NW 22:29:40 25° WSW 22:34:09 10° SSW
Cosmos 2360 Rocket 2.7 22:26:05 10° NW 22:31:36 56° WSW 22:37:07 10° S
CZ-4B R/B 3.6 22:26:24 10° NNE 22:31:44 79° ESE 22:36:58 10° SSW
Cosmos 2315 Rocket 4.1 22:29:11 10° N 22:35:25 81° W 22:41:36 10° S
NOAA 11 4.3 22:31:35 10° SSE 22:37:02 84° WSW 22:42:32 10° NNW
Cosmos 1898 Rocket 4.3 22:33:18 10° SSE 22:37:51 32° ESE 22:42:26 10° NE
Landsat 7 3.9 22:35:01 12° SSE 22:39:28 72° ENE 22:44:14 10° N
Meteor 1-11 4.4 22:34:35 10° S 22:40:15 60° E 22:45:54 10° NNE
CARTOSAT-1 3.9 22:37:20 13° SE 22:41:01 53° ENE 22:45:15 10° N
Cosmos 1633 Rocket 3.4 22:42:16 12° SSE 22:46:12 49° E 22:50:27 10° NNE
Sich 1 3.3 22:42:31 11° S 22:46:38 53° E 22:50:56 10° NNE
Spot 4 4.3 22:44:36 14° SE 22:48:35 51° ENE 22:53:19 10° N
Cosmos 292 Rocket 4.0 22:45:52 10° NNW 22:50:37 62° ENE 22:54:22 16° SE
Cosmos 1674 4.3 22:48:18 10° SW 22:51:50 35° WNW 22:55:26 10° N
Cosmos 2151 3.8 22:49:09 10° SSW 22:53:14 51° WNW 22:57:22 10° N
USA 229 DEB 3.9 22:47:57 10° SW 22:54:54 78° NW 23:01:59 10° NE
USA 229 3.9 22:48:03 10° SW 22:55:00 79° NW 23:02:06 10° NE
Meteor 2-10 4.4 22:49:34 10° N 22:55:13 63° ENE 22:59:52 16° SSE
Terra 1.9 22:51:23 15° SSE 22:55:20 72° ENE 23:00:06 10° N
Meteor 1-4 Rocket 2.7 22:52:02 10° N 22:55:51 71° ENE 22:58:33 18° SSE
Cosmos 1300 3.1 22:52:57 10° NNW 22:56:46 59° W 23:00:11 12° S
Cosmos 1805 Rocket 3.7 22:55:03 10° SSW 22:59:30 76° W 23:03:58 10° N
Cosmos 2227 Rocket 3.4 22:57:46 15° SE 23:00:44 23° ESE 23:05:06 10° NE
Cosmos 1626 3.5 22:59:43 17° SE 23:01:30 24° E 23:04:35 10° NE
CZ-4 R/B 4.1 22:56:34 10° NNE 23:01:35 79° WNW 23:06:27 10° SSW
USA 32 4.0 22:56:45 10° N 23:02:03 83° E 23:06:29 15° S
Cosmos 2333 Rocket 2.6 22:56:53 10° NNW 23:02:34 58° ENE 23:07:11 16° SE
SeaSat 1 3.4 22:58:28 12° ESE 23:02:44 40° NE 23:07:20 10° NNW
Nadezhda 1 Rocket 4.1 23:01:38 10° N 23:07:42 67° ENE 23:12:27 17° SSE
SL-16 R/B 3.6 23:03:27 10° NNW 23:08:29 31° NE 23:13:29 10° ESE
Lacrosse 4 Rocket 3.4 23:06:45 10° NNW 23:10:17 23° NE 23:13:51 10° E
CZ-4C R/B 3.8 23:07:42 14° S 23:10:27 46° W 23:13:49 10° NNW
Cosmos 1869 4.1 23:07:09 10° N 23:11:01 40° ENE 23:13:24 20° SE
COSMOS 2428 3.2 23:08:38 10° NW 23:14:09 53° WSW 23:18:35 16° S
NOSS 3-1 (A) 3.7 23:08:45 10° SSW 23:14:26 49° ESE 23:20:46 10° NE
Cosmos 1455 2.3 23:16:03 10° N 23:19:48 60° ENE 23:21:57 24° SSE
Cosmos 1666 Rocket 4.0 23:17:13 10° SSW 23:21:33 61° WNW 23:25:58 10° N
Cosmos 1745 Rocket 4.0 23:17:11 14° S 23:22:40 77° E 23:28:52 10° NNE
Cosmos 2058 4.2 23:20:25 10° SW 23:24:16 38° WNW 23:28:09 10° N
CZ-4C R/B 4.5 23:21:32 10° NW 23:27:05 28° NNE 23:33:12 10° ENE
Cosmos 2297 Rocket 3.3 23:25:45 19° SE 23:28:16 27° ESE 23:32:56 10° NE
Cosmos 2298 Rocket 4.1 23:23:06 10° SSW 23:28:26 87° WNW 23:33:48 10° NNE
COS B Rocket 4.4 23:30:36 10° NNE 23:33:44 28° E 23:35:12 22° ESE
Cosmos 1703 Rocket 4.4 23:30:36 10° N 23:34:40 37° ENE 23:37:00 21° SE
Cosmos 2219 Rocket 2.3 23:29:08 10° NNW 23:34:42 69° WSW 23:38:24 22° SSE
Cosmos 1470 Rocket 3.5 23:31:55 21° S 23:34:48 79° E 23:39:09 10° NNE
Cosmos 1933 Rocket 3.5 23:33:20 21° S 23:36:20 79° E 23:40:49 10° NNE
COSMOS 2455 3.4 23:31:19 10° NNW 23:37:15 53° NE 23:42:07 15° ESE
ATLAS 2AS CENTAUR R/B 3.6 23:32:38 19° SSE 23:37:19 36° ESE 23:44:27 10° NE
GEOS 3 Rocket 3.8 23:35:40 18° SE 23:39:40 72° NE 23:44:51 10° NW
Okean 1-7 4.4 23:36:19 10° NNE 23:40:01 27° ENE 23:42:15 18° ESE
Cosmos 1937 Rocket 3.4 23:36:51 15° SSW 23:41:16 78° ESE 23:46:30 10° NNE
Cosmos 220 Rocket 4.0 23:38:58 19° SSW 23:42:01 73° ESE 23:46:28 10° NNE
H-2A R/B 3.1 23:41:19 14° SSW 23:45:30 41° W 23:50:39 10° NNW
Cosmos 1703 3.8 23:42:49 16° SSW 23:45:50 55° WNW 23:49:41 10° N
Cosmos 2181 Rocket 4.3 23:40:20 10° N 23:46:39 62° ENE 23:50:50 22° SSE
Cosmos 1271 Rocket 4.1 23:44:13 10° NNW 23:47:37 31° W 23:50:04 16° SSW
Cosmos 1980 3.7 23:42:42 10° NNW 23:48:22 74° WSW 23:51:50 24° SSE
Cosmos 1269 Rocket 4.2 23:47:41 10° NNW 23:53:01 65° ENE 23:56:14 24° SE
Cosmos 1386 Rocket 4.4 23:49:17 18° S 23:53:55 86° W 00:00:00 10° N
Cosmos 389 Rocket 3.9 23:50:59 10° N 23:54:09 28° ENE 23:55:35 21° ESE
